{"data":{"norad_id":68307,"epoch":"2026-09-20T02:13:52.785120Z","epoch_age_seconds":83474,"freshness":"FRESH","line1":"1 68307U 26057P   26263.09297205  .00015748  00000+0  48897-3 0  9990","line2":"2 68307  97.2842  28.5363 0000735  94.6488 265.4838 15.33453742 28451","mean_motion":15.33453742,"eccentricity":7.35e-5,"inclination_deg":97.2842,"raan_deg":28.5363,"arg_perigee_deg":94.6488,"mean_anomaly_deg":265.4838,"bstar":0.00048897,"rev_number":2845,"period_min":93.905669311021,"perigee_km":465.01415597912,"apogee_km":466.02017314131,"semimajor_km":6843.6541645602,"source":"CELESTRAK","updated_at":"2026-09-20T09:00:43.878245Z"}}